TimeEST,TemperatureF,Dew PointF,Humidity,Sea Level PressureIn,VisibilityMPH,Wind Direction,Wind SpeedMPH,Gust SpeedMPH,PrecipitationIn,Events,Conditions,WindDirDegrees,DateUTC
12:03 AM,32.0,32.0,100,30.11,1.2,SE,5.8,-,N/A,Snow,Light Snow,130,2013-12-14 05:03:00
12:13 AM,32.0,32.0,100,30.11,1.5,SE,6.9,-,N/A,Snow,Light Snow,130,2013-12-14 05:13:00
12:18 AM,32.0,32.0,100,30.11,2.0,SE,6.9,-,N/A,Snow,Light Snow,130,2013-12-14 05:18:00
12:23 AM,32.0,32.0,100,30.11,3.0,SE,5.8,-,N/A,Snow,Light Snow,130,2013-12-14 05:23:00
12:28 AM,32.0,32.0,100,30.11,5.0,SE,5.8,-,N/A,Snow,Light Snow,140,2013-12-14 05:28:00
12:29 AM,32.0,32.0,100,30.11,5.0,SE,5.8,-,N/A,Snow,Light Snow,140,2013-12-14 05:29:00
12:49 AM,32.0,32.0,100,30.09,7.0,East,4.6,-,N/A,Snow,Light Snow,100,2013-12-14 05:49:00
12:54 AM,32.0,32.0,100,30.10,8.0,SE,4.6,-,N/A,Snow,Light Snow,130,2013-12-14 05:54:00
12:58 AM,30.6,30.6,100,30.14,9.0,SE,4.6,-,0.02,Snow,Light Snow,130,2013-12-14 05:58:00
1:00 AM,32.0,32.0,100,30.10,10.0,ESE,3.5,-,N/A,,Mostly Cloudy,120,2013-12-14 06:00:00
1:04 AM,32.0,32.0,100,30.10,10.0,East,3.5,-,N/A,,Light Freezing Drizzle,100,2013-12-14 06:04:00
1:15 AM,32.0,32.0,100,30.09,10.0,East,4.6,-,N/A,,Mostly Cloudy,90,2013-12-14 06:15:00
1:30 AM,32.0,32.0,100,30.08,10.0,East,5.8,-,N/A,,Mostly Cloudy,90,2013-12-14 06:30:00
1:35 AM,32.0,32.0,100,30.09,10.0,East,5.8,-,N/A,,Overcast,100,2013-12-14 06:35:00
1:40 AM,32.0,32.0,100,30.08,10.0,East,6.9,-,N/A,,Overcast,100,2013-12-14 06:40:00
1:55 AM,32.0,32.0,100,30.07,8.0,East,5.8,-,N/A,,Mostly Cloudy,90,2013-12-14 06:55:00
1:58 AM,32.0,32.0,100,30.10,8.0,East,6.9,-,0.00,,Mostly Cloudy,90,2013-12-14 06:58:00
2:08 AM,32.0,32.0,100,30.07,5.0,East,8.1,-,N/A,Snow,Light Snow,90,2013-12-14 07:08:00
2:13 AM,32.0,32.0,100,30.07,4.0,East,8.1,-,N/A,Snow,Light Snow,90,2013-12-14 07:13:00
2:28 AM,32.0,32.0,100,30.07,5.0,ENE,6.9,-,N/A,Snow,Light Snow,60,2013-12-14 07:28:00
2:33 AM,32.0,32.0,100,30.07,5.0,NE,6.9,-,N/A,Snow,Light Snow,40,2013-12-14 07:33:00
2:42 AM,32.0,32.0,100,30.08,6.0,East,5.8,-,N/A,Snow,Light Snow,90,2013-12-14 07:42:00
2:47 AM,32.0,32.0,100,30.08,4.0,ESE,8.1,-,N/A,Snow,Light Snow,110,2013-12-14 07:47:00
2:52 AM,32.0,32.0,100,30.07,3.0,East,8.1,-,N/A,Snow,Light Snow,100,2013-12-14 07:52:00
2:58 AM,30.9,30.9,100,30.10,3.0,East,8.1,-,0.00,Snow,Light Snow,100,2013-12-14 07:58:00
3:03 AM,32.0,32.0,100,30.07,3.0,ESE,8.1,-,N/A,Snow,Light Snow,110,2013-12-14 08:03:00
3:08 AM,32.0,32.0,100,30.07,2.5,East,8.1,-,N/A,Snow,Light Snow,100,2013-12-14 08:08:00
3:13 AM,32.0,32.0,100,30.06,1.8,East,6.9,-,N/A,Snow,Light Snow,90,2013-12-14 08:13:00
3:18 AM,32.0,32.0,100,30.06,2.0,East,5.8,-,N/A,Snow,Light Snow,90,2013-12-14 08:18:00
3:23 AM,32.0,32.0,100,30.07,4.0,East,6.9,-,N/A,Snow,Light Snow,90,2013-12-14 08:23:00
3:33 AM,32.0,32.0,100,30.06,2.5,East,8.1,-,N/A,Snow,Light Snow,90,2013-12-14 08:33:00
3:38 AM,32.0,32.0,100,30.05,3.0,East,9.2,-,N/A,Snow,Light Snow,90,2013-12-14 08:38:00
3:43 AM,32.0,32.0,100,30.05,4.0,East,10.4,-,N/A,Snow,Light Snow,90,2013-12-14 08:43:00
3:53 AM,32.0,32.0,100,30.05,4.0,East,8.1,-,N/A,Snow,Light Snow,100,2013-12-14 08:53:00
3:56 AM,32.0,32.0,100,30.05,4.0,East,9.2,-,N/A,Snow,Light Snow,100,2013-12-14 08:56:00
3:58 AM,31.3,31.3,100,30.09,4.0,East,9.2,-,0.01,Snow,Light Snow,100,2013-12-14 08:58:00
4:03 AM,32.0,32.0,100,30.04,3.0,East,9.2,-,N/A,Snow,Light Snow,90,2013-12-14 09:03:00
4:08 AM,32.0,32.0,100,30.04,2.5,East,9.2,-,N/A,Snow,Light Snow,90,2013-12-14 09:08:00
4:17 AM,32.0,32.0,100,30.03,2.5,East,8.1,-,N/A,Snow,Light Snow,90,2013-12-14 09:17:00
4:22 AM,32.0,32.0,100,30.02,3.0,East,9.2,-,N/A,Snow,Light Snow,90,2013-12-14 09:22:00
4:37 AM,32.0,32.0,100,30.02,4.0,East,8.1,-,N/A,Snow,Light Snow,90,2013-12-14 09:37:00
4:42 AM,32.0,32.0,100,30.02,4.0,East,8.1,-,N/A,Snow,Light Snow,90,2013-12-14 09:42:00
4:46 AM,32.0,32.0,100,30.02,4.0,East,6.9,-,N/A,Rain,Light Freezing Rain,90,2013-12-14 09:46:00
4:51 AM,32.0,32.0,100,30.02,5.0,East,8.1,-,N/A,Rain,Light Freezing Rain,100,2013-12-14 09:51:00
4:56 AM,32.0,32.0,100,30.02,6.0,East,9.2,-,N/A,Rain,Light Freezing Rain,100,2013-12-14 09:56:00
4:58 AM,31.5,31.5,100,30.06,6.0,East,8.1,-,0.01,Rain,Light Freezing Rain,90,2013-12-14 09:58:00
5:09 AM,32.0,32.0,100,30.01,6.0,East,9.2,-,N/A,Snow,Light Snow,90,2013-12-14 10:09:00
5:14 AM,32.0,32.0,100,30.01,4.0,East,10.4,-,N/A,Snow,Light Snow,100,2013-12-14 10:14:00
5:29 AM,32.0,32.0,100,29.99,4.0,East,10.4,-,N/A,Snow,Light Snow,100,2013-12-14 10:29:00
5:49 AM,32.0,32.0,100,29.98,3.0,East,11.5,-,N/A,Snow,Light Snow,90,2013-12-14 10:49:00
5:58 AM,31.8,31.8,100,30.03,3.0,East,12.7,-,0.01,Snow,Light Snow,100,2013-12-14 10:58:00
5:59 AM,32.0,32.0,100,29.98,4.0,East,11.5,-,N/A,Rain,Light Freezing Rain,100,2013-12-14 10:59:00
6:04 AM,32.0,32.0,100,29.98,4.0,East,12.7,-,N/A,Rain,Light Freezing Rain,100,2013-12-14 11:04:00
6:09 AM,32.0,32.0,100,29.99,5.0,East,11.5,-,N/A,Rain,Light Freezing Rain,100,2013-12-14 11:09:00
6:14 AM,32.0,32.0,100,29.99,5.0,East,10.4,-,N/A,Rain,Light Freezing Rain,90,2013-12-14 11:14:00
6:29 AM,32.0,32.0,100,29.97,5.0,East,10.4,-,N/A,Snow,Light Snow,100,2013-12-14 11:29:00
6:58 AM,31.8,31.8,100,30.01,1.5,East,9.2,-,0.15,Snow,Light Snow,90,2013-12-14 11:58:00
7:58 AM,31.6,31.6,100,29.98,1.2,East,11.5,-,0.03,Snow,Light Snow,80,2013-12-14 12:58:00
8:03 AM,32.0,32.0,100,29.94,1.2,ENE,12.7,-,N/A,Snow,Light Snow,60,2013-12-14 13:03:00
8:29 AM,30.2,30.2,100,29.94,1.0,East,11.5,-,N/A,Snow,Light Snow,80,2013-12-14 13:29:00
8:39 AM,30.2,30.2,100,29.94,0.8,ENE,12.7,-,N/A,Snow,Light Snow,70,2013-12-14 13:39:00
8:58 AM,29.1,29.1,100,29.97,1.0,ENE,12.7,-,0.04,Snow,Light Snow,70,2013-12-14 13:58:00
9:58 AM,28.8,28.8,100,29.95,1.2,ENE,12.7,-,0.04,Snow,Light Snow,70,2013-12-14 14:58:00
10:30 AM,28.4,28.4,100,29.90,1.2,ENE,10.4,-,N/A,Snow,Light Snow,70,2013-12-14 15:30:00
10:52 AM,28.4,28.4,100,29.89,1.2,ENE,12.7,-,N/A,Snow,Light Snow,60,2013-12-14 15:52:00
10:58 AM,28.4,28.4,100,29.93,1.2,ENE,13.8,-,0.03,Snow,Light Snow,70,2013-12-14 15:58:00
11:58 AM,28.8,28.8,100,29.88,0.8,ENE,13.8,-,0.05,Snow,Light Snow,60,2013-12-14 16:58:00
12:23 PM,28.4,28.4,100,29.82,0.5,ENE,12.7,-,N/A,Fog-Snow,Light Snow,60,2013-12-14 17:23:00
12:51 PM,28.4,28.4,100,29.81,0.8,ENE,10.4,-,N/A,Snow,Light Snow,60,2013-12-14 17:51:00
12:58 PM,28.4,28.4,100,29.84,0.5,NE,11.5,-,0.13,Fog-Snow,Light Snow,50,2013-12-14 17:58:00
1:03 PM,28.4,28.4,100,29.80,0.5,NE,11.5,-,N/A,Fog-Snow,Light Freezing Fog,40,2013-12-14 18:03:00
1:08 PM,28.4,28.4,100,29.79,0.8,NE,12.7,-,N/A,Snow,Light Snow,40,2013-12-14 18:08:00
1:13 PM,28.4,28.4,100,29.79,0.8,NE,12.7,-,N/A,Snow,Light Snow,40,2013-12-14 18:13:00
1:18 PM,28.4,28.4,100,29.79,1.0,NE,13.8,-,N/A,Snow,Light Snow,40,2013-12-14 18:18:00
1:58 PM,28.8,28.8,100,29.81,1.2,NE,12.7,-,0.03,Snow,Light Snow,40,2013-12-14 18:58:00
2:58 PM,28.0,28.0,100,29.80,2.0,NNE,12.7,-,0.07,Snow,Light Snow,30,2013-12-14 19:58:00
3:45 PM,28.4,28.4,100,29.78,4.0,NNE,12.7,-,N/A,Snow,Light Snow,30,2013-12-14 20:45:00
3:58 PM,27.7,27.7,100,29.82,7.0,NNE,12.7,-,0.03,Snow,Light Snow,30,2013-12-14 20:58:00
4:58 PM,27.5,27.5,100,29.83,4.0,North,8.1,-,0.00,Snow,Light Snow,10,2013-12-14 21:58:00
5:38 PM,26.6,26.6,100,29.80,10.0,North,9.2,-,N/A,,Overcast,360,2013-12-14 22:38:00
5:58 PM,27.1,27.1,100,29.84,10.0,North,9.2,-,0.00,,Overcast,360,2013-12-14 22:58:00
6:33 PM,26.6,26.6,100,29.82,10.0,North,6.9,-,N/A,,Overcast,350,2013-12-14 23:33:00
6:43 PM,26.6,26.6,100,29.82,10.0,NNW,8.1,-,N/A,,Overcast,340,2013-12-14 23:43:00
6:58 PM,26.6,26.6,100,29.87,10.0,NNW,10.4,-,N/A,,Overcast,340,2013-12-14 23:58:00
7:58 PM,25.3,25.3,100,29.89,10.0,NNW,9.2,-,N/A,,Overcast,330,2013-12-15 00:58:00
8:23 PM,24.8,24.8,100,29.86,10.0,NW,10.4,-,N/A,,Overcast,320,2013-12-15 01:23:00
8:55 PM,24.3,24.3,100,29.90,10.0,NNW,12.7,-,N/A,,Overcast,330,2013-12-15 01:55:00
9:58 PM,24.1,24.1,100,29.92,10.0,NW,15.0,-,N/A,,Overcast,310,2013-12-15 02:58:00
10:13 PM,24.8,24.8,100,29.88,10.0,NW,11.5,-,N/A,,Overcast,310,2013-12-15 03:13:00
10:38 PM,23.0,23.0,100,29.89,10.0,NW,10.4,-,N/A,,Overcast,310,2013-12-15 03:38:00
10:58 PM,23.9,23.9,100,29.93,10.0,WNW,11.5,-,N/A,,Overcast,300,2013-12-15 03:58:00
11:18 PM,24.8,24.8,100,29.90,10.0,WNW,13.8,-,N/A,,Overcast,300,2013-12-15 04:18:00
11:58 PM,24.3,24.3,100,29.95,10.0,WNW,10.4,-,N/A,,Overcast,300,2013-12-15 04:58:00